Lamoni, IA

10:31 PM CDT on September 22, 2017 (GMT -0500)
Lamoni Municipal

Weather History for KLWD - July, 2013

Change the Weather History Date:

Monday, July 29, 2013

  Actual Average Record
Temperature  
Mean Temperature 61 °F 75 °F  
Max Temperature 69 °F 85 °F 99 °F (1999)
Min Temperature 52 °F 66 °F 52 °F (2010)
Degree Days  
Heating Degree Days 4 0  
Month to date heating degree days 6 0  
Since 1 June heating degree days 38 19  
Since 1 July heating degree days 6 0  
Cooling Degree Days 0 10  
Month to date cooling degree days 278 293  
Year to date cooling degree days 535 540  
Since 1 June cooling degree days 459 486  
Growing Degree Days 10 (Base 50)    
Moisture  
Dew Point 58 °F    
Average Humidity 74    
Maximum Humidity 89    
Minimum Humidity 59    
Precipitation  
Precipitation 0.22 in 0.15 in 2.29 in (2011)
Month to date precipitation 2.21 4.69  
Sea Level Pressure  
Sea Level Pressure 30.08 in    
Wind  
Wind Speed 6 mph (ESE)    
Max Wind Speed 12 mph    
Max Gust Speed 16 mph    
Visibility 10 miles    
Events Rain    
T = Trace of Precipitation, MM = Missing Value Source: NWS Daily Summary

Daily Weather History Graph

Daily Weather History Graph

Search for Another Location

Airport or City:

Trip Planner

Search our weather history database for the weather conditions in past years. The results will help you decide how hot, cold, wet, or windy it might be!

Date:

Astronomy

Jul. 29, 2013 Rise Set
Actual Time 6:09 AM CDT 8:33 PM CDT
Civil Twilight 5:38 AM CDT 9:04 PM CDT
Nautical Twilight 5:00 AM CDT 9:42 PM CDT
Astronomical Twilight 4:17 AM CDT 10:24 PM CDT
Moon No Moon Rise 1:55 PM CDT (7/29)
Length of Visible Light 15h 25m
Length of Day
14h 23m
Waning Gibbous, 50% of the Moon is Illuminated
Jul 29
Waning Gibbous
Jul 29
Last Quarter
Aug 6
New
Aug 14
First Quarter
Aug 20
Full

Hourly Weather History & Observations

Time (CDT) Temp. Dew Point Humidity Pressure Visibility Wind Dir Wind Speed Gust Speed Precip Events Conditions
12:53 AM 59.0 °F 50.0 °F 72% 30.07 in 10.0 mi Calm Calm - N/A   Clear
1:53 AM 63.0 °F 48.9 °F 60% 30.07 in 10.0 mi SE 4.6 mph - N/A   Clear
2:53 AM 62.1 °F 48.9 °F 62% 30.07 in 10.0 mi SSE 3.5 mph - N/A   Clear
3:53 AM 53.1 °F 50.0 °F 89% 30.09 in 10.0 mi NNE 4.6 mph - N/A   Clear
4:53 AM 55.9 °F 50.0 °F 80% 30.08 in 10.0 mi East 3.5 mph - N/A   Clear
5:53 AM 57.0 °F 48.9 °F 74% 30.09 in 10.0 mi East 3.5 mph - N/A   Clear
6:53 AM 57.0 °F 50.0 °F 77% 30.10 in 10.0 mi East 3.5 mph - N/A   Scattered Clouds
7:53 AM 60.1 °F 52.0 °F 75% 30.11 in 10.0 mi East 3.5 mph - N/A   Overcast
8:53 AM 63.0 °F 52.0 °F 67% 30.12 in 10.0 mi Variable 3.5 mph - N/A   Overcast
9:53 AM 66.0 °F 53.1 °F 63% 30.10 in 10.0 mi SE 6.9 mph - N/A   Overcast
10:53 AM 68.0 °F 53.1 °F 59% 30.10 in 10.0 mi SE 8.1 mph - N/A   Overcast
11:53 AM 68.0 °F 55.0 °F 63% 30.11 in 10.0 mi SSE 6.9 mph - N/A   Overcast
12:53 PM 66.9 °F 55.0 °F 66% 30.10 in 10.0 mi SE 5.8 mph - 0.00 in Rain Light Rain
1:53 PM 64.0 °F 59.0 °F 84% 30.11 in 6.0 mi South 6.9 mph - 0.06 in Rain Rain
2:53 PM 64.0 °F 60.1 °F 87% 30.09 in 10.0 mi SSE 8.1 mph 16.1 mph 0.07 in Rain Light Rain
3:53 PM 64.0 °F 59.0 °F 84% 30.11 in 10.0 mi SE 8.1 mph - 0.00 in Rain Light Rain
4:53 PM 64.0 °F 60.1 °F 87% 30.09 in 10.0 mi East 4.6 mph - 0.02 in Rain Light Rain
5:53 PM 64.0 °F 61.0 °F 90% 30.09 in 9.0 mi Variable 4.6 mph - 0.03 in Rain Light Rain
6:14 PM 64.4 °F 60.8 °F 88% 30.08 in 10.0 mi ESE 5.8 mph - 0.00 in   Overcast
6:29 PM 64.4 °F 60.8 °F 88% 30.08 in 10.0 mi East 6.9 mph - 0.00 in Rain Light Rain
6:53 PM 64.0 °F 62.1 °F 93% 30.07 in 10.0 mi East 6.9 mph - 0.00 in   Overcast
7:27 PM 64.4 °F 62.6 °F 94% 30.06 in 10.0 mi ESE 5.8 mph - N/A   Overcast
7:34 PM 64.4 °F 62.6 °F 94% 30.06 in 10.0 mi ESE 6.9 mph - N/A   Overcast
7:53 PM 64.0 °F 61.0 °F 90% 30.06 in 10.0 mi ESE 5.8 mph - N/A   Overcast
8:24 PM 64.4 °F 62.6 °F 94% 30.07 in 10.0 mi East 5.8 mph - N/A   Overcast
8:53 PM 64.0 °F 62.1 °F 93% 30.06 in 7.0 mi ESE 6.9 mph - 0.01 in Rain Light Rain
9:32 PM 64.4 °F 62.6 °F 94% 30.08 in 10.0 mi ESE 4.6 mph - 0.00 in   Overcast
9:40 PM 64.4 °F 62.6 °F 94% 30.08 in 10.0 mi ESE 6.9 mph - 0.00 in   Overcast
9:53 PM 64.0 °F 62.1 °F 93% 30.07 in 10.0 mi ESE 6.9 mph - 0.00 in   Overcast
10:13 PM 64.4 °F 62.6 °F 94% 30.07 in 10.0 mi ESE 5.8 mph - N/A   Overcast
10:53 PM 64.0 °F 62.1 °F 93% 30.06 in 8.0 mi ESE 6.9 mph - 0.00 in Rain Light Rain
11:08 PM 64.4 °F 62.6 °F 94% 30.07 in 8.0 mi East 6.9 mph - 0.03 in Rain Light Rain
11:17 PM 64.4 °F 62.6 °F 94% 30.07 in 10.0 mi East 4.6 mph - 0.03 in   Overcast
11:37 PM 64.4 °F 62.6 °F 94% 30.06 in 10.0 mi ESE 6.9 mph - 0.03 in   Overcast
11:53 PM 64.0 °F 62.1 °F 93% 30.05 in 10.0 mi East 6.9 mph - 0.03 in   Overcast